| time (UTC) | temp F | wind direction | speed knots | gust knots | rain 1hr in | rain 24hr in | rain mn in | humidity % | barometer mb |
| 20260902062743 | 79 | 202 | 0.0 | 0.9 | 0.00 | 0.00 | 0.00 | 77 | 1015.6 |
| 20260902062238 | 80 | 207 | 0.0 | 0.9 | 0.00 | 0.00 | 0.00 | 77 | 1015.5 |
| 20260902061737 | 79 | 201 | 0.0 | 0.0 | 0.00 | 0.00 | 0.00 | 77 | 1015.5 |
| 20260902061233 | 78 | 206 | 0.0 | 0.9 | 0.00 | 0.00 | 0.00 | 79 | 1015.5 |
| 20260902060730 | 78 | 222 | 0.0 | 0.0 | 0.00 | 0.00 | 0.00 | 78 | 1015.4 |
| 20260902060225 | 78 | 222 | 0.0 | 0.0 | 0.00 | 0.00 | 0.00 | 78 | 1015.6 |
| 20260902055720 | 79 | 222 | 0.0 | 0.0 | 0.00 | 0.00 | 0.00 | 77 | 1015.6 |
| 20260902055217 | 79 | 222 | 0.0 | 0.0 | 0.00 | 0.00 | 0.00 | 77 | 1015.4 |
| 20260902054712 | 79 | 222 | 0.0 | 0.0 | 0.00 | 0.00 | 0.00 | 76 | 1015.6 |
| 20260902054207 | 80 | 222 | 0.0 | 0.0 | 0.00 | 0.00 | 0.00 | 76 | 1015.4 |
| 20260902053703 | 80 | 222 | 0.0 | 0.0 | 0.00 | 0.00 | 0.00 | 75 | 1015.8 |
| 20260902053202 | 80 | 222 | 0.0 | 0.0 | 0.00 | 0.00 | 0.00 | 74 | 1015.5 |
| 20260902052701 | 81 | 221 | 0.0 | 0.0 | 0.00 | 0.00 | 0.00 | 74 | 1015.5 |
| 20260902052157 | 81 | 221 | 0.0 | 0.0 | 0.00 | 0.00 | 0.00 | 73 | 1015.6 |
| 20260902051656 | 81 | 202 | 0.9 | 1.7 | 0.00 | 0.00 | 0.00 | 72 | 1015.4 |
| 20260902051151 | 82 | 218 | 0.0 | 0.0 | 0.00 | 0.00 | 0.00 | 71 | 1015.4 |
| 20260902050645 | 83 | 209 | 0.0 | 0.9 | 0.00 | 0.00 | 0.00 | 70 | 1015.2 |
| 20260902050141 | 83 | 211 | 0.0 | 0.9 | 0.00 | 0.00 | 0.00 | 69 | 1015.4 |
| 20260902045635 | 83 | 217 | 0.0 | 0.9 | 0.00 | 0.00 | 0.00 | 69 | 1015.5 |
| 20260902045132 | 83 | 208 | 0.0 | 0.9 | 0.00 | 0.00 | 0.00 | 69 | 1015.4 |
| 20260902044626 | 83 | 208 | 0.9 | 0.9 | 0.00 | 0.00 | 0.00 | 69 | 1015.4 |
| 20260902044122 | 82 | 214 | 0.0 | 0.9 | 0.00 | 0.00 | 0.00 | 70 | 1015.3 |
| 20260902043617 | 82 | 206 | 0.9 | 0.9 | 0.00 | 0.00 | 0.00 | 71 | 1015.1 |
| 20260902043112 | 82 | 225 | 0.0 | 0.0 | 0.00 | 0.00 | 0.00 | 71 | 1015.3 |
| 20260902042611 | 82 | 225 | 0.0 | 0.9 | 0.00 | 0.00 | 0.00 | 70 | 1015.2 |
| 20260902042108 | 83 | 226 | 0.0 | 0.0 | 0.00 | 0.00 | 0.00 | 69 | 1015.3 |
| 20260902041607 | 83 | 231 | 0.9 | 0.9 | 0.00 | 0.00 | 0.00 | 69 | 1015.1 |
| 20260902041101 | 83 | 222 | 0.9 | 0.9 | 0.00 | 0.00 | 0.00 | 69 | 1015.1 |
| 20260902040555 | 83 | 229 | 0.9 | 0.9 | 0.00 | 0.00 | 0.00 | 69 | 1015.1 |
| 20260902040050 | 83 | 219 | 0.0 | 0.0 | 0.00 | 0.00 | 0.00 | 68 | 1015.2 |
| 20260902035549 | 83 | 226 | 0.9 | 0.9 | 0.00 | 0.00 | 0.00 | 68 | 1015.1 |
| 20260902035044 | 84 | 225 | 0.0 | 0.0 | 0.00 | 0.00 | 0.00 | 67 | 1015.0 |
| 20260902034544 | 84 | 220 | 0.0 | 0.0 | 0.00 | 0.00 | 0.00 | 66 | 1015.1 |
| 20260902034043 | 85 | 207 | 0.0 | 0.9 | 0.00 | 0.00 | 0.00 | 66 | 1015.0 |
| 20260902033542 | 85 | 207 | 0.0 | 0.9 | 0.00 | 0.00 | 0.00 | 66 | 1014.8 |
| 20260902033037 | 85 | 218 | 0.0 | 0.0 | 0.00 | 0.00 | 0.00 | 65 | 1014.9 |
| 20260902032536 | 85 | 210 | 0.9 | 1.7 | 0.00 | 0.00 | 0.00 | 64 | 1015.0 |
| 20260902032031 | 85 | 212 | 0.0 | 0.0 | 0.00 | 0.00 | 0.00 | 64 | 1014.9 |
| 20260902031526 | 84 | 209 | 0.9 | 0.9 | 0.00 | 0.00 | 0.00 | 67 | 1014.8 |
| 20260902031022 | 83 | 230 | 0.0 | 0.0 | 0.00 | 0.00 | 0.00 | 68 | 1014.9 |
| 20260902030516 | 83 | 230 | 0.0 | 0.0 | 0.00 | 0.00 | 0.00 | 68 | 1014.7 |
| 20260902030011 | 84 | 230 | 0.0 | 0.0 | 0.00 | 0.00 | 0.00 | 67 | 1014.3 |
| 20260902025506 | 84 | 230 | 0.0 | 0.0 | 0.00 | 0.00 | 0.00 | 67 | 1014.5 |
| 20260902025001 | 84 | 230 | 0.0 | 0.0 | 0.00 | 0.00 | 0.00 | 66 | 1014.2 |
| 20260902024456 | 85 | 230 | 0.0 | 0.0 | 0.00 | 0.00 | 0.00 | 65 | 1014.3 |
| 20260902023956 | 86 | 229 | 0.0 | 0.0 | 0.00 | 0.00 | 0.00 | 64 | 1014.5 |
| 20260902023452 | 86 | 220 | 0.0 | 0.0 | 0.00 | 0.00 | 0.00 | 63 | 1014.1 |
| 20260902022951 | 86 | 225 | 0.0 | 0.0 | 0.00 | 0.00 | 0.00 | 62 | 1014.0 |
| 20260902022447 | 86 | 216 | 0.0 | 0.9 | 0.00 | 0.00 | 0.00 | 62 | 1013.7 |
| 20260902021942 | 86 | 213 | 0.0 | 0.9 | 0.00 | 0.00 | 0.00 | 63 | 1013.8 |
| 20260902021437 | 86 | 204 | 0.9 | 0.9 | 0.00 | 0.00 | 0.00 | 62 | 1013.6 |
| 20260902020932 | 87 | 212 | 0.0 | 0.9 | 0.00 | 0.00 | 0.00 | 61 | 1013.7 |
| 20260902020429 | 87 | 206 | 0.0 | 0.9 | 0.00 | 0.00 | 0.00 | 61 | 1013.5 |
| 20260902015924 | 87 | 205 | 0.0 | 0.0 | 0.00 | 0.00 | 0.00 | 61 | 1013.2 |
| 20260902015420 | 87 | 202 | 0.0 | 0.9 | 0.00 | 0.00 | 0.00 | 60 | 1013.3 |
| 20260902014915 | 87 | 209 | 0.9 | 0.9 | 0.00 | 0.00 | 0.00 | 60 | 1013.4 |
| 20260902014411 | 87 | 202 | 0.9 | 0.9 | 0.00 | 0.00 | 0.00 | 60 | 1013.2 |
| 20260902013910 | 86 | 230 | 0.0 | 0.0 | 0.00 | 0.00 | 0.00 | 60 | 1013.4 |
| 20260902013406 | 87 | 230 | 0.0 | 0.0 | 0.00 | 0.00 | 0.00 | 59 | 1013.3 |
| 20260902012901 | 87 | 228 | 0.0 | 0.0 | 0.00 | 0.00 | 0.00 | 58 | 1013.2 |
| 20260902012357 | 88 | 228 | 0.0 | 0.9 | 0.00 | 0.00 | 0.00 | 58 | 1013.3 |
| 20260902011852 | 88 | 227 | 0.0 | 0.0 | 0.00 | 0.00 | 0.00 | 57 | 1013.2 |
| 20260902011346 | 89 | 227 | 0.0 | 0.0 | 0.00 | 0.00 | 0.00 | 56 | 1012.9 |
| 20260902010841 | 89 | 219 | 0.0 | 0.0 | 0.00 | 0.00 | 0.00 | 55 | 1012.8 |
| 20260902010336 | 90 | 248 | 0.9 | 0.9 | 0.00 | 0.00 | 0.00 | 54 | 1012.9 |
| 20260902005835 | 90 | 210 | 1.7 | 2.6 | 0.00 | 0.00 | 0.00 | 52 | 1012.9 |
| 20260902005335 | 91 | 212 | 0.0 | 0.0 | 0.00 | 0.00 | 0.00 | 50 | 1012.7 |
| 20260902004830 | 92 | 201 | 0.9 | 0.9 | 0.00 | 0.00 | 0.00 | 49 | 1012.9 |
| 20260902004325 | 92 | 213 | 0.9 | 0.9 | 0.00 | 0.00 | 0.00 | 48 | 1012.8 |
| 20260902003820 | 93 | 210 | 0.0 | 0.9 | 0.00 | 0.00 | 0.00 | 48 | 1012.9 |
| 20260902003315 | 93 | 221 | 0.9 | 1.7 | 0.00 | 0.00 | 0.00 | 46 | 1013.0 |
| 20260902002811 | 94 | 209 | 0.0 | 0.9 | 0.00 | 0.00 | 0.00 | 46 | 1012.7 |
| 20260902002310 | 94 | 238 | 0.0 | 0.9 | 0.00 | 0.00 | 0.00 | 45 | 1013.0 |
| 20260902001806 | 94 | 221 | 0.0 | 0.9 | 0.00 | 0.00 | 0.00 | 46 | 1013.3 |
| 20260902001301 | 94 | 232 | 1.7 | 2.6 | 0.00 | 0.00 | 0.00 | 45 | 1012.9 |
| 20260902000801 | 95 | 231 | 0.9 | 0.9 | 0.00 | 0.00 | 0.00 | 45 | 1013.1 |
| 20260902000257 | 95 | 212 | 0.0 | 0.9 | 0.00 | 0.00 | 0.00 | 44 | 1012.8 |
| 20260901235750 | 95 | 232 | 0.9 | 0.9 | 0.00 | 0.00 | 0.00 | 44 | 1013.0 |
| 20260901235245 | 95 | 222 | 0.0 | 0.0 | 0.00 | 0.00 | 0.00 | 43 | 1013.0 |
| 20260901234744 | 95 | 212 | 0.0 | 0.0 | 0.00 | 0.00 | 0.00 | 44 | 1012.9 |
| 20260901234239 | 96 | 202 | 0.9 | 0.9 | 0.00 | 0.00 | 0.00 | 42 | 1012.9 |
| 20260901233734 | 96 | 210 | 0.0 | 0.9 | 0.00 | 0.00 | 0.00 | 43 | 1013.1 |
| 20260901233231 | 95 | 208 | 0.9 | 0.9 | 0.00 | 0.00 | 0.00 | 44 | 1013.1 |
| 20260901232731 | 95 | 224 | 0.0 | 0.9 | 0.00 | 0.00 | 0.00 | 44 | 1013.0 |
| 20260901232226 | 96 | 225 | 0.9 | 0.9 | 0.00 | 0.00 | 0.00 | 43 | 1013.0 |
| 20260901231722 | 96 | 217 | 0.9 | 0.9 | 0.00 | 0.00 | 0.00 | 43 | 1013.0 |
| 20260901231218 | 96 | 211 | 0.9 | 2.6 | 0.00 | 0.00 | 0.00 | 42 | 1012.9 |
| 20260901230714 | 97 | 226 | 0.0 | 0.9 | 0.00 | 0.00 | 0.00 | 42 | 1012.9 |
| 20260901230213 | 96 | 224 | 0.9 | 0.9 | 0.00 | 0.00 | 0.00 | 43 | 1013.0 |
| 20260901225709 | 97 | 236 | 1.7 | 1.7 | 0.00 | 0.00 | 0.00 | 41 | 1013.0 |
| 20260901225203 | 98 | 230 | 0.9 | 0.9 | 0.00 | 0.00 | 0.00 | 40 | 1013.1 |
| 20260901224659 | 97 | 202 | 0.9 | 1.7 | 0.00 | 0.00 | 0.00 | 40 | 1013.0 |
| 20260901224155 | 97 | 206 | 0.0 | 0.9 | 0.00 | 0.00 | 0.00 | 40 | 1013.2 |
| 20260901223651 | 98 | 202 | 0.0 | 0.9 | 0.00 | 0.00 | 0.00 | 38 | 1013.2 |
| 20260901223146 | 97 | 210 | 0.0 | 0.0 | 0.00 | 0.00 | 0.00 | 39 | 1013.0 |
| 20260901222642 | 97 | 208 | 0.9 | 1.7 | 0.00 | 0.00 | 0.00 | 40 | 1013.2 |
| 20260901222138 | 97 | 216 | 0.0 | 0.9 | 0.00 | 0.00 | 0.00 | 40 | 1013.0 |
| 20260901221633 | 98 | 204 | 0.9 | 0.9 | 0.00 | 0.00 | 0.00 | 39 | 1013.0 |
| 20260901221129 | 98 | 197 | 1.7 | 1.7 | 0.00 | 0.00 | 0.00 | 39 | 1012.9 |
| 20260901220628 | 97 | 208 | 0.9 | 0.9 | 0.00 | 0.00 | 0.00 | 40 | 1013.1 |
| 20260901220127 | 98 | 228 | 1.7 | 1.7 | 0.00 | 0.00 | 0.00 | 39 | 1013.2 |
| 20260901215626 | 98 | 222 | 0.9 | 0.9 | 0.00 | 0.00 | 0.00 | 39 | 1013.1 |
| 20260901215120 | 99 | 164 | 0.9 | 1.7 | 0.00 | 0.00 | 0.00 | 38 | 1013.1 |
| 20260901214619 | 96 | 196 | 0.9 | 0.9 | 0.00 | 0.00 | 0.00 | 40 | 1013.1 |
| 20260901214119 | 98 | 193 | 1.7 | 1.7 | 0.00 | 0.00 | 0.00 | 40 | 1013.3 |
| 20260901213613 | 98 | 190 | 0.9 | 0.9 | 0.00 | 0.00 | 0.00 | 37 | 1013.4 |
| 20260901213107 | 99 | 188 | 0.9 | 1.7 | 0.00 | 0.00 | 0.00 | 38 | 1013.5 |
| 20260901212607 | 98 | 248 | 2.6 | 2.6 | 0.00 | 0.00 | 0.00 | 38 | 1013.4 |
| 20260901212104 | 99 | 200 | 0.0 | 0.9 | 0.00 | 0.00 | 0.00 | 39 | 1013.4 |
| 20260901211558 | 98 | 202 | 0.9 | 0.9 | 0.00 | 0.00 | 0.00 | 40 | 1013.2 |
| 20260901211055 | 98 | 210 | 0.9 | 1.7 | 0.00 | 0.00 | 0.00 | 40 | 1013.7 |
| 20260901210550 | 98 | 171 | 0.9 | 1.7 | 0.00 | 0.00 | 0.00 | 39 | 1013.5 |
| 20260901210047 | 99 | 180 | 2.6 | 2.6 | 0.00 | 0.00 | 0.00 | 40 | 1013.7 |
| 20260901205541 | 99 | 176 | 0.9 | 1.7 | 0.00 | 0.00 | 0.00 | 39 | 1013.8 |
| 20260901205036 | 99 | 181 | 0.9 | 0.9 | 0.00 | 0.00 | 0.00 | 39 | 1013.8 |
| 20260901204532 | 98 | 208 | 0.9 | 1.7 | 0.00 | 0.00 | 0.00 | 40 | 1014.0 |
| 20260901204027 | 98 | 129 | 1.7 | 1.7 | 0.00 | 0.00 | 0.00 | 40 | 1013.8 |
| 20260901203521 | 100 | 132 | 2.6 | 2.6 | 0.00 | 0.00 | 0.00 | 39 | 1014.1 |
| 20260901203016 | 98 | 180 | 0.9 | 0.9 | 0.00 | 0.00 | 0.00 | 41 | 1014.3 |
| 20260901202511 | 98 | 202 | 1.7 | 1.7 | 0.00 | 0.00 | 0.00 | 40 | 1014.2 |
| 20260901202007 | 98 | 194 | 0.0 | 0.9 | 0.00 | 0.00 | 0.00 | 41 | 1014.4 |
| 20260901201502 | 98 | 231 | 0.9 | 1.7 | 0.00 | 0.00 | 0.00 | 41 | 1014.3 |
| 20260901200956 | 98 | 236 | 0.9 | 1.7 | 0.00 | 0.00 | 0.00 | 41 | 1014.5 |
| 20260901200451 | 97 | 200 | 0.0 | 0.9 | 0.00 | 0.00 | 0.00 | 42 | 1014.5 |
| 20260901195950 | 97 | 225 | 1.7 | 1.7 | 0.00 | 0.00 | 0.00 | 42 | 1014.6 |
| 20260901195449 | 98 | 200 | 0.9 | 0.9 | 0.00 | 0.00 | 0.00 | 42 | 1014.8 |
| 20260901194943 | 98 | 191 | 0.9 | 0.9 | 0.00 | 0.00 | 0.00 | 41 | 1014.7 |
| 20260901194438 | 98 | 214 | 1.7 | 2.6 | 0.00 | 0.00 | 0.00 | 41 | 1014.9 |
| 20260901193935 | 97 | 228 | 2.6 | 2.6 | 0.00 | 0.00 | 0.00 | 42 | 1014.7 |
| 20260901193434 | 98 | 225 | 0.9 | 0.9 | 0.00 | 0.00 | 0.00 | 42 | 1014.9 |
| 20260901192933 | 98 | 277 | 1.7 | 4.3 | 0.00 | 0.00 | 0.00 | 42 | 1015.0 |
| 20260901192429 | 97 | 164 | 2.6 | 4.3 | 0.00 | 0.00 | 0.00 | 42 | 1015.0 |
| 20260901191925 | 97 | 190 | 0.0 | 0.9 | 0.00 | 0.00 | 0.00 | 42 | 1015.1 |
| 20260901191420 | 97 | 205 | 0.0 | 0.0 | 0.00 | 0.00 | 0.00 | 43 | 1015.2 |
| 20260901190911 | 96 | 244 | 0.9 | 0.9 | 0.00 | 0.00 | 0.00 | 44 | 1015.3 |
| 20260901190411 | 96 | 219 | 4.3 | 6.1 | 0.00 | 0.00 | 0.00 | 45 | 1015.2 |
| 20260901185909 | 97 | 194 | 0.9 | 1.7 | 0.00 | 0.00 | 0.00 | 44 | 1015.3 |
| 20260901185408 | 96 | 137 | 2.6 | 4.3 | 0.00 | 0.00 | 0.00 | 44 | 1015.5 |
| 20260901184903 | 98 | 210 | 1.7 | 1.7 | 0.00 | 0.00 | 0.00 | 42 | 1015.6 |
| 20260901184359 | 97 | 231 | 1.7 | 1.7 | 0.00 | 0.00 | 0.00 | 44 | 1015.6 |
| 20260901183854 | 97 | 196 | 0.9 | 1.7 | 0.00 | 0.00 | 0.00 | 45 | 1015.6 |
| 20260901183353 | 96 | 189 | 0.9 | 0.9 | 0.00 | 0.00 | 0.00 | 45 | 1015.5 |
| 20260901182849 | 96 | 235 | 0.9 | 0.9 | 0.00 | 0.00 | 0.00 | 45 | 1016.0 |
| 20260901182350 | 96 | 232 | 0.9 | 1.7 | 0.00 | 0.00 | 0.00 | 45 | 1015.9 |
| 20260901181844 | 96 | 219 | 1.7 | 1.7 | 0.00 | 0.00 | 0.00 | 44 | 1016.1 |
| 20260901181339 | 96 | 214 | 1.7 | 1.7 | 0.00 | 0.00 | 0.00 | 45 | 1016.0 |
| 20260901180838 | 95 | 209 | 0.0 | 0.9 | 0.00 | 0.00 | 0.00 | 46 | 1016.1 |
| 20260901180337 | 95 | 194 | 3.5 | 5.2 | 0.00 | 0.00 | 0.00 | 45 | 1016.3 |
| 20260901175836 | 96 | 209 | 1.7 | 1.7 | 0.00 | 0.00 | 0.00 | 46 | 1016.3 |
| 20260901175331 | 96 | 249 | 1.7 | 1.7 | 0.00 | 0.00 | 0.00 | 46 | 1016.3 |
| 20260901174826 | 97 | 234 | 2.6 | 4.3 | 0.00 | 0.00 | 0.00 | 46 | 1016.4 |
| 20260901174322 | 93 | 206 | 0.9 | 1.7 | 0.00 | 0.00 | 0.00 | 48 | 1016.4 |
| 20260901173817 | 96 | 195 | 1.7 | 1.7 | 0.00 | 0.00 | 0.00 | 47 | 1016.6 |
| 20260901173312 | 94 | 222 | 0.0 | 0.9 | 0.00 | 0.00 | 0.00 | 46 | 1016.7 |
| 20260901172809 | 94 | 196 | 2.6 | 2.6 | 0.00 | 0.00 | 0.00 | 48 | 1016.9 |
| 20260901172307 | 94 | 208 | 0.9 | 0.9 | 0.00 | 0.00 | 0.00 | 47 | 1016.5 |
| 20260901171806 | 93 | 204 | 3.5 | 5.2 | 0.00 | 0.00 | 0.00 | 51 | 1016.9 |
| 20260901171305 | 93 | 197 | 0.9 | 0.9 | 0.00 | 0.00 | 0.00 | 50 | 1017.0 |
| 20260901170804 | 94 | 207 | 0.0 | 0.9 | 0.00 | 0.00 | 0.00 | 50 | 1016.9 |
| 20260901170259 | 94 | 228 | 1.7 | 2.6 | 0.00 | 0.00 | 0.00 | 50 | 1017.0 |
| 20260901165757 | 93 | 190 | 2.6 | 2.6 | 0.00 | 0.00 | 0.00 | 51 | 1017.0 |
| 20260901165252 | 91 | 198 | 0.0 | 0.9 | 0.00 | 0.00 | 0.00 | 51 | 1017.2 |
| 20260901164749 | 92 | 193 | 0.9 | 0.9 | 0.00 | 0.00 | 0.00 | 50 | 1016.9 |
| 20260901164244 | 93 | 219 | 0.9 | 0.9 | 0.00 | 0.00 | 0.00 | 51 | 1017.1 |
| 20260901163739 | 93 | 209 | 0.0 | 0.9 | 0.00 | 0.00 | 0.00 | 48 | 1017.1 |
| 20260901163238 | 94 | 213 | 1.7 | 1.7 | 0.00 | 0.00 | 0.00 | 49 | 1017.4 |
| 20260901162734 | 93 | 214 | 0.0 | 0.9 | 0.00 | 0.00 | 0.00 | 47 | 1017.3 |
| 20260901162233 | 93 | 206 | 0.9 | 1.7 | 0.00 | 0.00 | 0.00 | 50 | 1017.5 |
| 20260901161732 | 93 | 200 | 0.0 | 0.9 | 0.00 | 0.00 | 0.00 | 51 | 1017.2 |
| 20260901161227 | 91 | 217 | 1.7 | 1.7 | 0.00 | 0.00 | 0.00 | 51 | 1017.2 |
| 20260901160723 | 91 | 205 | 0.0 | 0.9 | 0.00 | 0.00 | 0.00 | 56 | 1017.2 |
| 20260901160218 | 90 | 198 | 0.0 | 0.9 | 0.00 | 0.00 | 0.00 | 58 | 1017.4 |
| 20260901155717 | 90 | 215 | 0.0 | 0.9 | 0.00 | 0.00 | 0.00 | 56 | 1017.4 |
| 20260901155213 | 89 | 228 | 0.0 | 0.9 | 0.00 | 0.00 | 0.00 | 57 | 1017.4 |
| 20260901154708 | 89 | 204 | 0.9 | 0.9 | 0.00 | 0.00 | 0.00 | 55 | 1017.3 |
| 20260901154203 | 88 | 214 | 1.7 | 2.6 | 0.00 | 0.00 | 0.00 | 58 | 1017.3 |
| 20260901153658 | 88 | 254 | 0.9 | 0.9 | 0.00 | 0.00 | 0.00 | 60 | 1017.4 |
| 20260901153157 | 89 | 219 | 0.0 | 0.9 | 0.00 | 0.00 | 0.00 | 62 | 1017.3 |
| 20260901152652 | 88 | 223 | 0.9 | 0.9 | 0.00 | 0.00 | 0.00 | 64 | 1017.1 |
| 20260901152151 | 88 | 225 | 0.0 | 0.9 | 0.00 | 0.00 | 0.00 | 63 | 1017.2 |
| 20260901151647 | 88 | 220 | 0.0 | 0.0 | 0.00 | 0.00 | 0.00 | 63 | 1017.5 |
| 20260901151146 | 87 | 216 | 0.0 | 0.9 | 0.00 | 0.00 | 0.00 | 63 | 1017.5 |
| 20260901150645 | 86 | 206 | 0.0 | 0.9 | 0.00 | 0.00 | 0.00 | 65 | 1017.5 |
| 20260901150143 | 87 | 206 | 0.0 | 0.9 | 0.00 | 0.00 | 0.00 | 66 | 1017.5 |
| 20260901145642 | 86 | 201 | 0.9 | 0.9 | 0.00 | 0.00 | 0.00 | 66 | 1017.3 |
| 20260901145142 | 85 | 202 | 0.0 | 0.9 | 0.00 | 0.00 | 0.00 | 70 | 1017.3 |
| 20260901144637 | 85 | 205 | 0.9 | 0.9 | 0.00 | 0.00 | 0.00 | 69 | 1017.2 |
| 20260901144132 | 86 | 228 | 0.9 | 0.9 | 0.00 | 0.00 | 0.00 | 68 | 1017.4 |
| 20260901143628 | 85 | 232 | 0.9 | 0.9 | 0.00 | 0.00 | 0.00 | 68 | 1017.4 |
| 20260901143124 | 84 | 221 | 0.0 | 0.9 | 0.00 | 0.00 | 0.00 | 74 | 1017.2 |
| 20260901142620 | 84 | 221 | 0.0 | 0.0 | 0.00 | 0.00 | 0.00 | 77 | 1017.0 |
| 20260901142119 | 83 | 221 | 0.0 | 0.9 | 0.00 | 0.00 | 0.00 | 78 | 1017.2 |
| 20260901141614 | 84 | 221 | 0.9 | 0.9 | 0.00 | 0.00 | 0.00 | 78 | 1017.3 |
| 20260901141109 | 82 | 222 | 0.0 | 0.0 | 0.00 | 0.00 | 0.00 | 81 | 1017.3 |
| 20260901140607 | 82 | 224 | 0.0 | 0.0 | 0.00 | 0.00 | 0.00 | 81 | 1017.4 |
| 20260901140106 | 82 | 224 | 0.0 | 0.0 | 0.00 | 0.00 | 0.00 | 83 | 1017.3 |
| 20260901135601 | 82 | 220 | 0.0 | 0.9 | 0.00 | 0.00 | 0.00 | 82 | 1017.4 |
| 20260901135056 | 81 | 198 | 0.0 | 0.0 | 0.00 | 0.00 | 0.00 | 83 | 1017.5 |
| 20260901134553 | 81 | 202 | 0.0 | 0.0 | 0.00 | 0.00 | 0.00 | 84 | 1017.5 |
| 20260901134052 | 81 | 207 | 0.0 | 0.0 | 0.00 | 0.00 | 0.00 | 84 | 1017.3 |
| 20260901133551 | 80 | 206 | 0.0 | 0.9 | 0.00 | 0.00 | 0.00 | 85 | 1017.3 |
| 20260901133050 | 80 | 206 | 0.0 | 0.0 | 0.00 | 0.00 | 0.00 | 86 | 1016.9 |
| 20260901132545 | 78 | 206 | 0.0 | 0.0 | 0.00 | 0.00 | 0.00 | 88 | 1017.1 |
| 20260901132045 | 77 | 206 | 0.9 | 0.9 | 0.00 | 0.00 | 0.00 | 90 | 1017.1 |
| 20260901131539 | 75 | 202 | 0.0 | 0.0 | 0.00 | 0.00 | 0.00 | 92 | 1017.1 |
| 20260901131034 | 75 | 198 | 0.0 | 0.0 | 0.00 | 0.00 | 0.00 | 94 | 1017.1 |
| 20260901130534 | 75 | 198 | 0.0 | 0.0 | 0.00 | 0.00 | 0.00 | 95 | 1017.2 |
| 20260901130033 | 73 | 199 | 0.0 | 0.0 | 0.00 | 0.00 | 0.00 | 95 | 1017.0 |
| 20260901125531 | 72 | 200 | 0.0 | 0.0 | 0.00 | 0.00 | 0.00 | 95 | 1016.9 |
| 20260901125027 | 71 | 200 | 0.0 | 0.0 | 0.00 | 0.00 | 0.00 | 95 | 1016.5 |
| 20260901124521 | 71 | 200 | 0.0 | 0.0 | 0.00 | 0.00 | 0.00 | 95 | 1016.6 |
| 20260901124021 | 72 | 199 | 0.0 | 0.0 | 0.00 | 0.00 | 0.00 | 95 | 1016.6 |
| 20260901123516 | 71 | 198 | 0.0 | 0.0 | 0.00 | 0.00 | 0.00 | 95 | 1016.6 |
| 20260901123015 | 71 | 198 | 0.0 | 0.9 | 0.00 | 0.00 | 0.00 | 95 | 1016.5 |
| 20260901111745 | 72 | 198 | 0.0 | 0.0 | 0.00 | 0.00 | 0.00 | 90 | 1016.4 |
| 20260901111244 | 72 | 198 | 0.0 | 0.0 | 0.00 | 0.00 | 0.00 | 90 | 1016.4 |
| 20260901110743 | 72 | 198 | 0.0 | 0.0 | 0.00 | 0.00 | 0.00 | 90 | 1016.5 |
| 20260901110238 | 73 | 200 | 0.0 | 0.9 | 0.00 | 0.00 | 0.00 | 90 | 1016.4 |
| 20260901105735 | 73 | 201 | 0.0 | 0.0 | 0.00 | 0.00 | 0.00 | 90 | 1016.5 |
| 20260901105234 | 73 | 198 | 0.9 | 0.9 | 0.00 | 0.00 | 0.00 | 91 | 1016.5 |
| 20260901104731 | 72 | 194 | 0.0 | 0.9 | 0.00 | 0.00 | 0.00 | 92 | 1016.5 |
| 20260901104226 | 72 | 195 | 0.0 | 0.9 | 0.00 | 0.00 | 0.00 | 93 | 1016.4 |
| 20260901103725 | 71 | 194 | 0.9 | 0.9 | 0.00 | 0.00 | 0.00 | 93 | 1016.2 |
| 20260901103220 | 71 | 196 | 0.0 | 0.0 | 0.00 | 0.00 | 0.00 | 93 | 1016.4 |
| 20260901102715 | 71 | 196 | 0.0 | 0.0 | 0.00 | 0.00 | 0.00 | 93 | 1016.5 |
| 20260901102214 | 71 | 196 | 0.0 | 0.0 | 0.00 | 0.00 | 0.00 | 93 | 1016.3 |
| 20260901101711 | 71 | 196 | 0.0 | 0.0 | 0.00 | 0.00 | 0.00 | 93 | 1016.2 |
| 20260901101211 | 71 | 196 | 0.0 | 0.0 | 0.00 | 0.00 | 0.00 | 92 | 1016.3 |
| 20260901100705 | 71 | 196 | 0.0 | 0.0 | 0.00 | 0.00 | 0.00 | 92 | 1016.3 |
| 20260901100200 | 72 | 196 | 0.0 | 0.0 | 0.00 | 0.00 | 0.00 | 92 | 1016.4 |
| 20260901095658 | 72 | 196 | 0.0 | 0.0 | 0.00 | 0.00 | 0.00 | 91 | 1016.3 |
| 20260901095156 | 72 | 196 | 0.0 | 0.0 | 0.00 | 0.00 | 0.00 | 91 | 1016.3 |
| 20260901094651 | 72 | 196 | 0.0 | 0.0 | 0.00 | 0.00 | 0.00 | 91 | 1016.2 |
| 20260901094150 | 73 | 196 | 0.0 | 0.0 | 0.00 | 0.00 | 0.00 | 91 | 1016.2 |
| 20260901093645 | 73 | 196 | 0.0 | 0.0 | 0.00 | 0.00 | 0.00 | 90 | 1016.4 |
| 20260901093144 | 73 | 196 | 0.0 | 0.0 | 0.00 | 0.00 | 0.00 | 89 | 1016.1 |
| 20260901092640 | 73 | 196 | 0.0 | 0.0 | 0.00 | 0.00 | 0.00 | 89 | 1016.4 |
| 20260901092136 | 74 | 196 | 0.0 | 0.0 | 0.00 | 0.00 | 0.00 | 88 | 1016.6 |
| 20260901091632 | 74 | 196 | 0.0 | 0.0 | 0.00 | 0.00 | 0.00 | 87 | 1016.4 |
| 20260901091126 | 75 | 196 | 0.0 | 0.0 | 0.00 | 0.00 | 0.00 | 86 | 1016.5 |
| 20260901090621 | 75 | 196 | 0.0 | 0.9 | 0.00 | 0.00 | 0.00 | 86 | 1016.5 |
| 20260901090117 | 75 | 196 | 0.0 | 0.9 | 0.00 | 0.00 | 0.00 | 86 | 1016.6 |
| 20260901085612 | 75 | 197 | 0.9 | 0.9 | 0.00 | 0.00 | 0.00 | 86 | 1016.6 |
| 20260901085108 | 75 | 199 | 0.0 | 0.9 | 0.00 | 0.00 | 0.00 | 86 | 1016.5 |
| 20260901084604 | 75 | 199 | 0.0 | 0.0 | 0.00 | 0.00 | 0.00 | 87 | 1016.6 |
| 20260901084101 | 74 | 198 | 0.0 | 0.9 | 0.00 | 0.00 | 0.00 | 89 | 1016.6 |
| 20260901083600 | 74 | 201 | 0.0 | 0.0 | 0.00 | 0.00 | 0.00 | 88 | 1016.6 |
| 20260901083058 | 74 | 202 | 0.0 | 0.0 | 0.00 | 0.00 | 0.00 | 88 | 1016.6 |
| 20260901082553 | 74 | 201 | 0.0 | 0.0 | 0.00 | 0.00 | 0.00 | 87 | 1016.6 |
| 20260901082049 | 74 | 202 | 0.0 | 0.0 | 0.00 | 0.00 | 0.00 | 87 | 1016.5 |
| 20260901081543 | 74 | 202 | 0.0 | 0.0 | 0.00 | 0.00 | 0.00 | 86 | 1016.4 |
| 20260901081038 | 75 | 201 | 0.0 | 0.0 | 0.00 | 0.00 | 0.00 | 87 | 1016.4 |
| 20260901080537 | 75 | 202 | 0.0 | 0.0 | 0.00 | 0.00 | 0.00 | 86 | 1016.5 |
| 20260901080032 | 75 | 201 | 0.0 | 0.0 | 0.00 | 0.00 | 0.00 | 85 | 1016.4 |
| 20260901075528 | 75 | 202 | 0.0 | 0.0 | 0.00 | 0.00 | 0.00 | 85 | 1016.4 |
| 20260901075027 | 76 | 201 | 0.0 | 0.0 | 0.00 | 0.00 | 0.00 | 84 | 1016.4 |
| 20260901074526 | 76 | 201 | 0.0 | 0.0 | 0.00 | 0.00 | 0.00 | 83 | 1016.5 |
| 20260901074022 | 77 | 201 | 0.0 | 0.0 | 0.00 | 0.00 | 0.00 | 82 | 1016.6 |
| 20260901073518 | 77 | 201 | 0.0 | 0.0 | 0.00 | 0.00 | 0.00 | 81 | 1016.5 |
| 20260901073013 | 78 | 202 | 0.0 | 0.0 | 0.00 | 0.00 | 0.00 | 80 | 1016.5 |
| 20260901072508 | 79 | 202 | 0.0 | 0.9 | 0.00 | 0.00 | 0.00 | 79 | 1016.5 |
| 20260901072003 | 78 | 210 | 0.0 | 0.0 | 0.00 | 0.00 | 0.00 | 79 | 1016.3 |
| 20260901071502 | 79 | 210 | 0.0 | 0.0 | 0.00 | 0.00 | 0.00 | 78 | 1016.1 |
| 20260901071001 | 79 | 202 | 0.9 | 0.9 | 0.00 | 0.00 | 0.00 | 78 | 1016.5 |
| 20260901070457 | 79 | 202 | 0.9 | 0.9 | 0.00 | 0.00 | 0.00 | 77 | 1016.3 |
| 20260901065955 | 80 | 202 | 0.9 | 0.9 | 0.00 | 0.00 | 0.00 | 76 | 1016.4 |
| 20260901065452 | 80 | 210 | 0.0 | 0.9 | 0.00 | 0.00 | 0.00 | 75 | 1016.3 |
| 20260901064946 | 78 | 211 | 0.0 | 0.9 | 0.00 | 0.00 | 0.00 | 79 | 1016.0 |
| 20260901064442 | 78 | 219 | 0.0 | 0.0 | 0.00 | 0.00 | 0.00 | 79 | 1016.4 |
| 20260901063939 | 78 | 219 | 0.0 | 0.0 | 0.00 | 0.00 | 0.00 | 78 | 1016.4 |
| 20260901063436 | 78 | 219 | 0.0 | 0.0 | 0.00 | 0.00 | 0.00 | 77 | 1016.3 |